EW8046 Weather Reports


time (UTC)temp
C
wind
direction
speed
KPH
gust
KPH
rain 1hr
cm
rain 24hr
cm
rain mn
cm
humidity
%
barometer
mb
20260505092901 13 164 9.7 19.3 0.00 0.00 0.00 83 1013.6
20260505092402 13 188 8.0 17.7 0.00 0.00 0.00 83 1013.6
20260505091902 13 201 6.4 14.5 0.00 0.00 0.00 82 1013.5
20260505091400 13 200 8.0 16.1 0.00 0.00 0.00 82 1013.4
20260505090901 13 180 8.0 19.3 0.00 0.00 0.00 82 1013.4
20260505090401 13 190 8.0 19.3 0.00 0.00 0.00 82 1013.4
20260505085900 13 152 8.0 16.1 0.00 0.00 0.00 83 1013.4
20260505085402 13 217 9.7 19.3 0.00 0.00 0.00 82 1013.3
20260505083901 13 190 9.7 17.7 0.00 0.00 0.00 82 1013.2
20260505083401 13 145 9.7 17.7 0.00 0.00 0.00 82 1013.1
20260505082900 13 195 8.0 17.7 0.00 0.00 0.00 82 1013.1
20260505082401 13 172 8.0 17.7 0.00 0.00 0.00 82 1013.1
20260505081902 13 207 8.0 19.3 0.00 0.00 0.00 81 1013.1
20260505081401 13 194 8.0 19.3 0.00 0.00 0.00 82 1013.2
20260505080902 13 186 6.4 16.1 0.00 0.00 0.00 81 1013.2
20260505080401 13 168 6.4 17.7 0.00 0.00 0.00 81 1013.2
20260505075900 13 200 6.4 17.7 0.00 0.00 0.00 81 1013.2
20260505075400 13 183 6.4 19.3 0.00 0.00 0.00 81 1013.1
20260505074400 13 147 6.4 17.7 0.00 0.00 0.00 81 1013.0
20260505073901 13 187 8.0 22.5 0.00 0.00 0.00 81 1012.8
20260505073400 13 167 9.7 22.5 0.00 0.00 0.00 81 1012.7
20260505072901 13 171 9.7 22.5 0.00 0.00 0.00 80 1012.6
20260505072400 13 188 11.3 19.3 0.00 0.00 0.00 80 1012.5
20260505071902 13 180 11.3 19.3 0.00 0.00 0.00 80 1012.4
20260505070901 13 197 8.0 17.7 0.00 0.00 0.00 80 1012.4
20260505070401 13 194 8.0 17.7 0.00 0.00 0.00 80 1012.4
20260505065901 13 173 8.0 17.7 0.00 0.00 0.00 79 1012.4
20260505065401 13 172 8.0 17.7 0.00 0.00 0.00 79 1012.3
20260505064902 14 188 8.0 19.3 0.00 0.00 0.00 79 1012.3
20260505064401 14 163 8.0 19.3 0.00 0.00 0.00 79 1012.3
20260505063901 14 178 9.7 22.5 0.00 0.00 0.00 79 1012.2
20260505063355 14 190 11.3 25.7 0.00 0.00 0.00 78 1012.1
20260505062850 14 200 9.7 25.7 0.00 0.00 0.00 78 1012.1
20260505062343 14 180 8.0 16.1 0.00 0.00 0.00 78 1012.1
20260505061342 14 201 8.0 14.5 0.00 0.00 0.00 77 1011.9
20260505060842 14 175 6.4 14.5 0.00 0.00 0.00 77 1011.9
20260505054840 15 179 6.4 19.3 0.00 0.00 0.00 75 1011.7
20260505054338 15 143 6.4 19.3 0.00 0.00 0.00 75 1011.7
20260505053836 15 211 6.4 19.3 0.00 0.00 0.00 74 1011.6
20260505053334 15 167 8.0 19.3 0.00 0.00 0.00 74 1011.5
20260505052834 15 192 8.0 17.7 0.00 0.00 0.00 74 1011.5
20260505052333 15 189 9.7 17.7 0.00 0.00 0.00 73 1011.5
20260505051834 16 190 8.0 17.7 0.00 0.00 0.00 73 1011.5
20260505051334 16 202 6.4 17.7 0.00 0.00 0.00 73 1011.4
20260505050832 16 171 8.0 16.1 0.00 0.00 0.00 72 1011.4
20260505050329 16 184 9.7 16.1 0.00 0.00 0.00 72 1011.3
20260505041316 18 208 9.7 16.1 0.00 0.00 0.00 67 1010.6
20260505040814 18 186 9.7 24.1 0.00 0.00 0.00 66 1010.5
20260505040312 18 197 9.7 24.1 0.00 0.00 0.00 66 1010.4
20260505035812 18 169 11.3 24.1 0.00 0.00 0.00 65 1010.3
20260505035311 18 175 12.9 24.1 0.00 0.00 0.00 64 1010.3
20260505034812 19 182 11.3 22.5 0.00 0.00 0.00 64 1010.2
20260505034312 19 199 9.7 19.3 0.00 0.00 0.00 63 1010.0
20260505033810 20 162 11.3 19.3 0.00 0.00 0.00 63 1010.0
20260505033310 20 187 11.3 19.3 0.00 0.00 0.00 62 1009.9
20260505032311 20 185 11.3 20.9 0.00 0.00 0.00 61 1009.7
20260505031810 21 169 12.9 19.3 0.00 0.00 0.00 60 1009.6
20260505031310 21 186 11.3 19.3 0.00 0.00 0.00 60 1009.6
20260505030303 21 179 14.5 20.9 0.00 0.00 0.00 58 1009.5
20260505025804 22 198 12.9 22.5 0.00 0.00 0.00 57 1009.4
20260505025305 22 178 12.9 22.5 0.00 0.00 0.00 57 1009.3
20260505024802 22 194 12.9 19.3 0.00 0.00 0.00 56 1009.3
20260505023801 23 209 12.9 19.3 0.00 0.00 0.00 53 1009.2
20260505023301 23 187 11.3 19.3 0.00 0.00 0.00 52 1009.1
20260505022301 24 204 11.3 19.3 0.00 0.00 0.00 51 1009.1
20260505021801 24 202 11.3 19.3 0.00 0.00 0.00 50 1009.1
20260505020800 24 179 11.3 17.7 0.00 0.00 0.00 50 1009.1
20260505020301 25 200 11.3 19.3 0.00 0.00 0.00 50 1009.0
20260505015801 25 194 12.9 20.9 0.00 0.00 0.00 50 1009.0
20260505014800 25 200 11.3 20.9 0.00 0.00 0.00 50 1009.0
20260505014301 25 184 11.3 19.3 0.00 0.00 0.00 50 1009.0
20260505013800 25 209 12.9 19.3 0.00 0.00 0.00 50 1009.0
20260505013302 25 202 11.3 17.7 0.00 0.00 0.00 49 1009.1
20260505012801 25 193 11.3 17.7 0.00 0.00 0.00 49 1009.1
20260505012301 25 180 11.3 17.7 0.00 0.00 0.00 49 1009.1
20260505011800 25 188 12.9 19.3 0.00 0.00 0.00 48 1009.1
20260505011301 25 190 11.3 19.3 0.00 0.00 0.00 48 1009.2
20260505010301 25 189 11.3 19.3 0.00 0.00 0.00 48 1009.2
20260505005801 25 201 12.9 19.3 0.00 0.00 0.00 47 1009.2
20260505005301 26 198 9.7 17.7 0.00 0.00 0.00 47 1009.2
20260505004801 26 206 9.7 16.1 0.00 0.00 0.00 47 1009.2
20260505004301 26 206 11.3 20.9 0.00 0.00 0.00 47 1009.3
20260505003801 26 134 11.3 20.9 0.00 0.00 0.00 47 1009.3
20260505003301 26 219 12.9 19.3 0.00 0.00 0.00 47 1009.3
20260505002303 26 192 11.3 19.3 0.00 0.00 0.00 45 1009.3
20260505001801 26 221 11.3 19.3 0.00 0.00 0.00 44 1009.2
20260505001300 26 215 12.9 20.9 0.00 0.00 0.00 44 1009.4
20260505000802 26 0 12.9 20.9 0.00 0.00 0.00 43 1009.3
20260505000301 26 212 11.3 19.3 0.00 0.00 0.00 42 1009.4
20260504235304 26 215 9.7 16.1 0.00 0.00 0.00 42 1009.3
20260504234800 26 221 9.7 16.1 0.00 0.00 0.00 43 1009.4
20260504234301 26 212 9.7 16.1 0.00 0.00 0.00 42 1009.4
20260504233801 26 209 11.3 17.7 0.00 0.00 0.00 43 1009.4
20260504233300 26 181 11.3 19.3 0.00 0.00 0.00 43 1009.4
20260504232801 26 194 11.3 19.3 0.00 0.00 0.00 43 1009.4
20260504232303 26 240 11.3 19.3 0.00 0.00 0.00 44 1009.4
20260504231302 26 200 12.9 20.9 0.00 0.00 0.00 43 1009.4
20260504230801 26 219 12.9 19.3 0.00 0.00 0.00 43 1009.4
20260504230301 26 192 12.9 22.5 0.00 0.00 0.00 41 1009.4
20260504225801 26 207 11.3 22.5 0.00 0.00 0.00 40 1009.5
20260504225301 26 192 9.7 17.7 0.00 0.00 0.00 38 1009.6
20260504224802 26 225 9.7 17.7 0.00 0.00 0.00 37 1009.7
20260504224300 26 241 11.3 17.7 0.00 0.00 0.00 35 1009.8
20260504223801 26 192 11.3 17.7 0.00 0.00 0.00 34 1009.9
20260504223302 26 174 9.7 17.7 0.00 0.00 0.00 36 1010.0
20260504222304 26 200 11.3 17.7 0.00 0.00 0.00 37 1010.1
20260504221802 26 205 11.3 19.3 0.00 0.00 0.00 38 1010.1
20260504221304 26 200 9.7 19.3 0.00 0.00 0.00 38 1010.1
20260504220802 26 186 8.0 16.1 0.00 0.00 0.00 40 1010.1
20260504220301 26 182 9.7 16.1 0.00 0.00 0.00 39 1010.2
20260504215801 26 200 11.3 17.7 0.00 0.00 0.00 39 1010.2
20260504215301 26 227 11.3 17.7 0.00 0.00 0.00 42 1010.2
20260504214801 25 211 11.3 17.7 0.00 0.00 0.00 42 1010.3
20260504214303 25 236 11.3 19.3 0.00 0.00 0.00 43 1010.3
20260504213801 25 243 9.7 19.3 0.00 0.00 0.00 43 1010.4
20260504212801 25 180 11.3 20.9 0.00 0.00 0.00 45 1010.5
20260504212300 25 165 11.3 20.9 0.00 0.00 0.00 46 1010.5
20260504211800 25 204 11.3 19.3 0.00 0.00 0.00 48 1010.5
20260504211301 24 170 9.7 20.9 0.00 0.00 0.00 46 1010.5
20260504210801 24 209 11.3 20.9 0.00 0.00 0.00 49 1010.5
20260504210301 24 195 14.5 20.9 0.00 0.00 0.00 49 1010.6
20260504205300 23 200 12.9 22.5 0.00 0.00 0.00 51 1010.7
20260504204800 23 194 12.9 20.9 0.00 0.00 0.00 51 1010.7
20260504204301 23 207 12.9 20.9 0.00 0.00 0.00 51 1010.7
20260504203804 23 195 12.9 20.9 0.00 0.00 0.00 52 1010.8
20260504203302 23 195 12.9 20.9 0.00 0.00 0.00 52 1010.9
20260504202801 23 195 11.3 20.9 0.00 0.00 0.00 51 1010.8
20260504202300 23 207 11.3 20.9 0.00 0.00 0.00 52 1010.7
20260504201801 23 161 11.3 19.3 0.00 0.00 0.00 53 1010.8
20260504201300 23 188 11.3 19.3 0.00 0.00 0.00 52 1010.7
20260504200801 23 0 9.7 22.5 0.00 0.00 0.00 51 1010.7
20260504200301 23 221 11.3 22.5 0.00 0.00 0.00 53 1010.7
20260504195802 23 180 9.7 20.9 0.00 0.00 0.00 53 1010.7
20260504195301 23 201 11.3 20.9 0.00 0.00 0.00 53 1010.7
20260504193801 23 163 11.3 19.3 0.00 0.00 0.00 55 1010.9
20260504193300 23 175 9.7 17.7 0.00 0.00 0.00 54 1010.9
20260504192800 22 197 11.3 17.7 0.00 0.00 0.00 56 1010.9
20260504192304 22 198 11.3 17.7 0.00 0.00 0.00 55 1010.9
20260504191801 22 201 9.7 17.7 0.00 0.00 0.00 56 1011.0
20260504190801 22 188 11.3 19.3 0.00 0.00 0.00 56 1011.1
20260504190301 22 200 9.7 17.7 0.00 0.00 0.00 56 1011.1
20260504185800 22 185 9.7 17.7 0.00 0.00 0.00 56 1011.2
20260504185302 22 192 11.3 19.3 0.00 0.00 0.00 57 1011.1
20260504184801 22 164 12.9 19.3 0.00 0.00 0.00 55 1011.1
20260504184301 22 205 12.9 19.3 0.00 0.00 0.00 56 1011.1
20260504183801 22 218 11.3 19.3 0.00 0.00 0.00 55 1011.1
20260504183301 22 201 8.0 16.1 0.00 0.00 0.00 56 1011.1
20260504182801 22 220 11.3 17.7 0.00 0.00 0.00 55 1011.1
20260504182300 22 200 9.7 17.7 0.00 0.00 0.00 55 1011.2
20260504181801 22 192 8.0 14.5 0.00 0.00 0.00 56 1011.2
20260504181301 21 268 9.7 19.3 0.00 0.00 0.00 57 1011.2
20260504180802 21 178 9.7 19.3 0.00 0.00 0.00 56 1011.3
20260504180301 21 186 8.0 16.1 0.00 0.00 0.00 57 1011.3
20260504175801 21 196 9.7 14.5 0.00 0.00 0.00 57 1011.3
20260504175301 21 205 9.7 14.5 0.00 0.00 0.00 57 1011.4
20260504174801 20 203 9.7 16.1 0.00 0.00 0.00 57 1011.4
20260504174302 20 222 9.7 16.1 0.00 0.00 0.00 58 1011.4
20260504173801 21 202 8.0 16.1 0.00 0.00 0.00 57 1011.3
20260504173300 21 186 6.4 11.3 0.00 0.00 0.00 57 1011.3
20260504172800 20 200 6.4 11.3 0.00 0.00 0.00 57 1011.3
20260504171801 20 192 6.4 12.9 0.00 0.00 0.00 59 1011.3
20260504171300 19 204 3.2 11.3 0.00 0.00 0.00 61 1011.3
20260504170800 18 219 1.6 9.7 0.00 0.00 0.00 63 1011.3
20260504170300 18 26 1.6 4.8 0.00 0.00 0.00 65 1011.3
20260504160300 15 24 3.2 6.4 0.00 0.00 0.00 71 1011.1
20260504150749 13 212 0.0 0.0 0.00 0.00 0.00 78 1010.8
20260504150248 13 212 0.0 0.0 0.00 0.00 0.00 79 1010.8
20260504141234 12 212 0.0 0.0 0.00 0.00 0.00 79 1010.5
20260504140733 12 212 0.0 0.0 0.00 0.00 0.00 79 1010.4
20260504140230 12 212 0.0 0.0 0.00 0.00 0.00 79 1010.3
20260504130228 12 212 0.0 0.0 0.00 0.00 0.00 77 1009.8
20260504120225 12 212 0.0 1.6 0.00 0.00 0.00 76 1009.8
20260504110712 13 212 0.0 0.0 0.00 0.00 0.00 70 1009.7
20260504100204 14 213 0.0 3.2 0.00 0.00 0.00 67 1009.6